Time,TemperatureF,DewpointF,PressureIn,WindDirection,WindDirectionDegrees,WindSpeedMPH,WindSpeedGustMPH,Humidity,HourlyPrecipIn,Conditions,Clouds,dailyrainin,SolarRadiationWatts/m^2,SoftwareType,DateUTC
2013-09-27 00:00:00,63.8,60.2,25.90,SE,145,0.0,1.0,88,0.00,,,0.00,0,Wunderground v.1.15,2013-09-27 06:00:00,
2013-09-27 00:10:00,63.4,59.8,25.89,SE,146,0.0,0.0,88,0.00,,,0.00,0,Wunderground v.1.15,2013-09-27 06:10:00,
2013-09-27 00:16:00,63.3,59.7,25.89,SE,146,0.0,0.0,88,0.00,,,0.00,0,Wunderground v.1.15,2013-09-27 06:16:00,
2013-09-27 00:25:00,63.3,60.0,25.89,SE,146,0.0,0.0,89,0.00,,,0.00,0,Wunderground v.1.15,2013-09-27 06:25:00,
2013-09-27 00:35:00,63.1,59.8,25.89,SE,145,0.0,0.0,89,0.00,,,0.00,0,Wunderground v.1.15,2013-09-27 06:35:00,
2013-09-27 00:40:00,63.1,60.1,25.89,SE,146,0.0,0.0,90,0.00,,,0.00,0,Wunderground v.1.15,2013-09-27 06:40:00,
2013-09-27 00:45:00,63.1,60.1,25.89,SE,145,0.0,0.0,90,0.00,,,0.00,0,Wunderground v.1.15,2013-09-27 06:45:00,
2013-09-27 00:50:00,63.0,60.0,25.89,SE,146,0.0,0.0,90,0.00,,,0.00,0,Wunderground v.1.15,2013-09-27 06:50:00,
2013-09-27 00:55:00,62.8,59.5,25.89,West,269,0.0,0.0,89,0.00,,,0.00,0,Wunderground v.1.15,2013-09-27 06:55:00,
2013-09-27 01:00:00,63.0,59.7,25.89,West,269,0.0,0.0,89,0.00,,,0.00,0,Wunderground v.1.15,2013-09-27 07:00:00,
2013-09-27 01:10:00,63.0,59.4,25.89,West,269,0.0,0.0,88,0.00,,,0.00,0,Wunderground v.1.15,2013-09-27 07:10:00,
2013-09-27 01:15:00,63.0,59.7,25.90,West,269,0.0,0.0,89,0.00,,,0.00,0,Wunderground v.1.15,2013-09-27 07:15:00,
2013-09-27 01:26:00,63.0,59.7,25.90,West,269,0.0,0.0,89,0.00,,,0.00,0,Wunderground v.1.15,2013-09-27 07:26:00,
2013-09-27 01:31:00,62.8,59.8,25.90,West,269,0.0,0.0,90,0.00,,,0.00,0,Wunderground v.1.15,2013-09-27 07:31:00,
2013-09-27 01:40:00,62.6,59.6,25.90,West,269,0.0,1.0,90,0.00,,,0.00,0,Wunderground v.1.15,2013-09-27 07:40:00,
2013-09-27 01:45:00,62.8,60.1,25.90,West,269,0.0,0.0,91,0.00,,,0.00,0,Wunderground v.1.15,2013-09-27 07:45:00,
2013-09-27 01:55:00,63.1,60.4,25.90,West,269,0.0,0.0,91,0.00,,,0.00,0,Wunderground v.1.15,2013-09-27 07:55:00,
2013-09-27 02:01:00,63.1,60.4,25.90,West,269,0.0,0.0,91,0.00,,,0.00,0,Wunderground v.1.15,2013-09-27 08:01:00,
2013-09-27 02:10:00,63.4,61.3,25.90,West,269,0.0,0.0,93,0.00,,,0.00,0,Wunderground v.1.15,2013-09-27 08:10:00,
2013-09-27 02:15:00,63.6,61.5,25.90,West,269,0.0,0.0,93,0.00,,,0.00,0,Wunderground v.1.15,2013-09-27 08:15:00,
2013-09-27 02:20:00,63.8,61.7,25.91,West,269,0.0,0.0,93,0.00,,,0.00,0,Wunderground v.1.15,2013-09-27 08:20:00,
2013-09-27 02:30:00,63.9,62.1,25.91,West,269,0.0,0.0,94,0.00,,,0.00,0,Wunderground v.1.15,2013-09-27 08:30:00,
2013-09-27 02:40:00,64.1,62.3,25.91,West,269,0.0,0.0,94,0.00,,,0.00,0,Wunderground v.1.15,2013-09-27 08:40:00,
2013-09-27 02:45:00,64.1,62.0,25.90,West,269,0.0,0.0,93,0.00,,,0.00,0,Wunderground v.1.15,2013-09-27 08:45:00,
2013-09-27 02:50:00,64.1,62.0,25.91,West,269,0.0,1.0,93,0.00,,,0.00,0,Wunderground v.1.15,2013-09-27 08:50:00,
2013-09-27 02:55:00,64.1,62.0,25.90,West,269,0.0,1.0,93,0.00,,,0.00,0,Wunderground v.1.15,2013-09-27 08:55:00,
2013-09-27 03:01:00,64.1,61.7,25.91,West,269,0.0,0.0,92,0.00,,,0.00,0,Wunderground v.1.15,2013-09-27 09:01:00,
2013-09-27 03:10:00,64.2,61.8,25.91,SSE,163,0.0,0.0,92,0.00,,,0.00,0,Wunderground v.1.15,2013-09-27 09:10:00,
2013-09-27 03:15:00,64.2,61.5,25.91,SSE,162,0.0,0.0,91,0.00,,,0.00,0,Wunderground v.1.15,2013-09-27 09:15:00,
2013-09-27 03:25:00,64.2,61.5,25.91,SSE,162,0.0,0.0,91,0.00,,,0.00,0,Wunderground v.1.15,2013-09-27 09:25:00,
2013-09-27 03:35:00,64.2,61.2,25.91,SSE,162,0.0,0.0,90,0.00,,,0.00,0,Wunderground v.1.15,2013-09-27 09:35:00,
2013-09-27 03:46:00,64.2,61.2,25.91,SSE,162,0.0,0.0,90,0.00,,,0.00,0,Wunderground v.1.15,2013-09-27 09:46:00,
2013-09-27 03:55:00,64.1,61.1,25.92,SSE,162,0.0,0.0,90,0.00,,,0.00,0,Wunderground v.1.15,2013-09-27 09:55:00,
2013-09-27 04:00:00,64.1,61.1,25.92,SSE,162,0.0,0.0,90,0.00,,,0.00,0,Wunderground v.1.15,2013-09-27 10:00:00,
2013-09-27 04:10:00,63.8,60.8,25.92,SSE,163,0.0,0.0,90,0.00,,,0.00,0,Wunderground v.1.15,2013-09-27 10:10:00,
2013-09-27 04:15:00,63.8,61.1,25.92,SSE,162,0.0,0.0,91,0.00,,,0.00,0,Wunderground v.1.15,2013-09-27 10:15:00,
2013-09-27 04:25:00,63.6,60.9,25.92,SSE,162,0.0,0.0,91,0.00,,,0.00,0,Wunderground v.1.15,2013-09-27 10:25:00,
2013-09-27 04:35:00,63.3,60.6,25.92,SSE,162,0.0,0.0,91,0.00,,,0.00,0,Wunderground v.1.15,2013-09-27 10:35:00,
2013-09-27 04:50:00,63.3,60.9,25.92,SSE,162,0.0,0.0,92,0.00,,,0.00,0,Wunderground v.1.15,2013-09-27 10:50:00,
2013-09-27 05:01:00,63.1,60.4,25.93,SSE,162,0.0,0.0,91,0.00,,,0.00,0,Wunderground v.1.15,2013-09-27 11:01:00,
2013-09-27 05:10:00,63.1,60.4,25.93,SSE,162,0.0,0.0,91,0.00,,,0.00,0,Wunderground v.1.15,2013-09-27 11:10:00,
2013-09-27 05:15:00,63.1,60.7,25.93,SSE,162,0.0,0.0,92,0.00,,,0.00,0,Wunderground v.1.15,2013-09-27 11:15:00,
2013-09-27 05:25:00,63.1,60.4,25.93,SSE,162,0.0,0.0,91,0.00,,,0.00,0,Wunderground v.1.15,2013-09-27 11:25:00,
2013-09-27 05:31:00,63.1,60.1,25.93,ENE,74,0.0,0.0,90,0.00,,,0.00,11,Wunderground v.1.15,2013-09-27 11:31:00,
2013-09-27 05:40:00,63.1,58.8,25.93,East,89,0.0,0.0,86,0.00,,,0.00,19,Wunderground v.1.15,2013-09-27 11:40:00,
2013-09-27 05:50:00,63.4,58.5,25.93,East,89,0.0,0.0,84,0.00,,,0.00,32,Wunderground v.1.15,2013-09-27 11:50:00,
2013-09-27 05:56:00,63.8,58.9,25.94,East,89,0.0,0.0,84,0.00,,,0.00,37,Wunderground v.1.15,2013-09-27 11:56:00,
2013-09-27 06:01:00,63.9,58.6,25.94,East,89,0.0,0.0,83,0.00,,,0.00,42,Wunderground v.1.15,2013-09-27 12:01:00,
2013-09-27 06:10:00,64.1,58.8,25.94,East,90,0.0,1.0,83,0.00,,,0.00,54,Wunderground v.1.15,2013-09-27 12:10:00,
2013-09-27 06:15:00,64.2,58.2,25.94,SE,140,1.0,2.0,81,0.00,,,0.00,62,Wunderground v.1.15,2013-09-27 12:15:00,
2013-09-27 06:25:00,64.7,58.4,25.95,SE,140,2.0,2.0,80,0.00,,,0.00,70,Wunderground v.1.15,2013-09-27 12:25:00,
2013-09-27 06:30:00,64.9,58.2,25.95,SE,142,2.0,2.0,79,0.00,,,0.00,76,Wunderground v.1.15,2013-09-27 12:30:00,
2013-09-27 06:36:00,65.1,58.4,25.95,SE,142,1.0,1.0,79,0.00,,,0.00,79,Wunderground v.1.15,2013-09-27 12:36:00,
2013-09-27 06:45:00,65.4,58.4,25.94,NNE,19,0.0,0.0,78,0.00,,,0.00,120,Wunderground v.1.15,2013-09-27 12:45:00,
2013-09-27 06:55:00,65.7,58.3,25.95,SSE,160,1.0,1.0,77,0.00,,,0.00,98,Wunderground v.1.15,2013-09-27 12:55:00,
2013-09-27 07:05:00,66.2,58.4,25.96,South,170,1.0,2.0,76,0.00,,,0.00,165,Wunderground v.1.15,2013-09-27 13:05:00,
2013-09-27 07:10:00,66.8,58.6,25.96,SE,138,1.0,2.0,75,0.00,,,0.01,149,Wunderground v.1.15,2013-09-27 13:10:00,
2013-09-27 07:16:00,67.5,58.5,25.96,SSE,153,2.0,2.0,73,0.00,,,0.01,376,Wunderground v.1.15,2013-09-27 13:16:00,
2013-09-27 07:25:00,68.8,57.8,25.96,SSE,153,1.0,1.0,68,0.00,,,0.01,438,Wunderground v.1.15,2013-09-27 13:25:00,
2013-09-27 07:30:00,69.5,58.5,25.96,ESE,107,1.0,1.0,68,0.00,,,0.01,301,Wunderground v.1.15,2013-09-27 13:30:00,
2013-09-27 07:40:00,69.3,58.3,25.95,East,84,2.0,2.0,68,0.00,,,0.01,322,Wunderground v.1.15,2013-09-27 13:40:00,
2013-09-27 07:46:00,69.5,59.3,25.96,South,169,1.0,2.0,70,0.00,,,0.01,348,Wunderground v.1.15,2013-09-27 13:46:00,
2013-09-27 07:55:00,70.8,58.4,25.97,ENE,78,1.0,2.0,65,0.00,,,0.01,492,Wunderground v.1.15,2013-09-27 13:55:00,
2013-09-27 08:00:00,71.4,57.7,25.97,ENE,76,2.0,2.0,62,0.00,,,0.01,584,Wunderground v.1.15,2013-09-27 14:00:00,
2013-09-27 08:10:00,72.0,56.9,25.97,ENE,62,2.0,2.0,59,0.00,,,0.01,545,Wunderground v.1.15,2013-09-27 14:10:00,
2013-09-27 08:15:00,72.2,58.0,25.97,NE,38,1.0,7.0,61,0.00,,,0.01,596,Wunderground v.1.15,2013-09-27 14:15:00,
2013-09-27 08:21:00,72.4,58.6,25.96,East,82,2.0,2.0,62,0.00,,,0.01,606,Wunderground v.1.15,2013-09-27 14:21:00,
2013-09-27 08:30:00,72.4,59.1,25.97,NE,38,4.0,4.0,63,0.00,,,0.01,728,Wunderground v.1.15,2013-09-27 14:30:00,
2013-09-27 08:40:00,72.2,59.3,25.97,ESE,121,3.0,3.0,64,0.00,,,0.01,385,Wunderground v.1.15,2013-09-27 14:40:00,
2013-09-27 08:45:00,72.0,59.2,25.96,NNW,330,3.0,3.0,64,0.00,,,0.01,396,Wunderground v.1.15,2013-09-27 14:45:00,
2013-09-27 08:55:00,72.7,58.9,25.96,ENE,62,2.0,3.0,62,0.00,,,0.01,559,Wunderground v.1.15,2013-09-27 14:55:00,
2013-09-27 09:06:00,73.8,59.0,25.96,NNW,345,2.0,3.0,60,0.00,,,0.01,840,Wunderground v.1.15,2013-09-27 15:06:00,
2013-09-27 09:15:00,75.0,59.2,25.96,NW,323,2.0,2.0,58,0.00,,,0.01,742,Wunderground v.1.15,2013-09-27 15:15:00,
2013-09-27 09:21:00,75.3,59.5,25.96,NE,49,1.0,2.0,58,0.00,,,0.01,846,Wunderground v.1.15,2013-09-27 15:21:00,
2013-09-27 09:30:00,75.3,58.5,25.96,ENE,71,2.0,2.0,56,0.00,,,0.01,635,Wunderground v.1.15,2013-09-27 15:30:00,
2013-09-27 09:40:00,76.2,58.9,25.96,NNW,327,1.0,3.0,55,0.00,,,0.01,729,Wunderground v.1.15,2013-09-27 15:40:00,
2013-09-27 09:45:00,76.2,58.9,25.96,NE,50,2.0,3.0,55,0.00,,,0.01,512,Wunderground v.1.15,2013-09-27 15:45:00,
2013-09-27 09:55:00,76.2,58.9,25.96,NE,40,2.0,2.0,55,0.00,,,0.01,578,Wunderground v.1.15,2013-09-27 15:55:00,
2013-09-27 10:01:00,76.2,58.3,25.96,NW,319,2.0,2.0,54,0.00,,,0.01,513,Wunderground v.1.15,2013-09-27 16:01:00,
2013-09-27 10:10:00,76.6,58.7,25.96,NW,317,2.0,3.0,54,0.00,,,0.01,480,Wunderground v.1.15,2013-09-27 16:10:00,
2013-09-27 10:21:00,76.6,58.7,25.96,NE,51,1.0,1.0,54,0.00,,,0.01,413,Wunderground v.1.15,2013-09-27 16:21:00,
2013-09-27 10:30:00,76.2,58.3,25.95,North,355,2.0,2.0,54,0.00,,,0.01,629,Wunderground v.1.15,2013-09-27 16:30:00,
2013-09-27 10:40:00,76.9,57.9,25.95,ENE,76,2.0,2.0,52,0.00,,,0.01,643,Wunderground v.1.15,2013-09-27 16:40:00,
2013-09-27 10:45:00,77.3,58.8,25.94,NW,315,2.0,7.0,53,0.00,,,0.01,529,Wunderground v.1.15,2013-09-27 16:45:00,
2013-09-27 10:55:00,76.7,59.3,25.94,NNW,346,3.0,4.0,55,0.00,,,0.01,582,Wunderground v.1.15,2013-09-27 16:55:00,
2013-09-27 11:00:00,77.3,59.4,25.94,NW,324,3.0,8.0,54,0.00,,,0.01,921,Wunderground v.1.15,2013-09-27 17:00:00,
2013-09-27 11:10:00,77.8,58.8,25.94,North,360,5.0,7.0,52,0.00,,,0.01,775,Wunderground v.1.15,2013-09-27 17:10:00,
2013-09-27 11:15:00,77.5,59.0,25.93,South,172,5.0,7.0,53,0.00,,,0.01,1199,Wunderground v.1.15,2013-09-27 17:15:00,
2013-09-27 11:26:00,77.5,60.1,25.93,NNE,13,4.0,5.0,55,0.00,,,0.01,926,Wunderground v.1.15,2013-09-27 17:26:00,
2013-09-27 11:30:00,77.5,59.5,25.92,North,360,4.0,4.0,54,0.00,,,0.01,454,Wunderground v.1.15,2013-09-27 17:30:00,
2013-09-27 11:35:00,77.6,59.6,25.92,SE,131,3.0,6.0,54,0.00,,,0.01,554,Wunderground v.1.15,2013-09-27 17:35:00,
2013-09-27 11:45:00,77.6,60.7,25.92,NE,41,4.0,10.0,56,0.00,,,0.01,443,Wunderground v.1.15,2013-09-27 17:45:00,
2013-09-27 11:56:00,77.8,61.3,25.92,NNE,25,4.0,7.0,57,0.00,,,0.01,1241,Wunderground v.1.15,2013-09-27 17:56:00,
2013-09-27 12:01:00,77.6,61.2,25.91,NW,306,5.0,8.0,57,0.00,,,0.01,1072,Wunderground v.1.15,2013-09-27 18:01:00,
2013-09-27 12:10:00,77.6,61.7,25.91,NW,316,5.0,5.0,58,0.00,,,0.01,1013,Wunderground v.1.15,2013-09-27 18:10:00,
2013-09-27 12:20:00,76.9,61.5,25.91,East,81,4.0,4.0,59,0.00,,,0.01,359,Wunderground v.1.15,2013-09-27 18:20:00,
2013-09-27 12:25:00,76.9,60.5,25.91,NW,312,5.0,5.0,57,0.00,,,0.01,478,Wunderground v.1.15,2013-09-27 18:25:00,
2013-09-27 12:31:00,76.6,61.2,25.91,East,96,5.0,5.0,59,0.00,,,0.01,1273,Wunderground v.1.15,2013-09-27 18:31:00,
2013-09-27 12:40:00,76.7,61.3,25.90,North,355,3.0,3.0,59,0.00,,,0.01,504,Wunderground v.1.15,2013-09-27 18:40:00,
2013-09-27 12:45:00,76.4,61.0,25.90,North,360,3.0,3.0,59,0.00,,,0.01,392,Wunderground v.1.15,2013-09-27 18:45:00,
2013-09-27 12:51:00,76.2,61.8,25.90,NNE,28,4.0,4.0,61,0.00,,,0.01,260,Wunderground v.1.15,2013-09-27 18:51:00,
2013-09-27 13:01:00,75.7,61.3,25.90,SE,142,3.0,3.0,61,0.00,,,0.01,111,Wunderground v.1.15,2013-09-27 19:01:00,
2013-09-27 13:10:00,75.9,61.0,25.89,ESE,120,2.0,5.0,60,0.00,,,0.01,178,Wunderground v.1.15,2013-09-27 19:10:00,
2013-09-27 13:15:00,75.9,60.5,25.89,ESE,106,2.0,5.0,59,0.00,,,0.01,176,Wunderground v.1.15,2013-09-27 19:15:00,
2013-09-27 13:26:00,75.7,60.8,25.89,SSE,162,2.0,4.0,60,0.00,,,0.01,141,Wunderground v.1.15,2013-09-27 19:26:00,
2013-09-27 13:31:00,75.9,60.1,25.89,SSE,157,2.0,2.0,58,0.00,,,0.01,146,Wunderground v.1.15,2013-09-27 19:31:00,
2013-09-27 13:40:00,75.5,61.1,25.88,ENE,63,1.0,2.0,61,0.00,,,0.01,178,Wunderground v.1.15,2013-09-27 19:40:00,
2013-09-27 13:45:00,75.2,61.3,25.88,ENE,63,1.0,2.0,62,0.00,,,0.01,207,Wunderground v.1.15,2013-09-27 19:45:00,
2013-09-27 13:55:00,75.2,62.2,25.88,ESE,109,1.0,1.0,64,0.00,,,0.01,237,Wunderground v.1.15,2013-09-27 19:55:00,
2013-09-27 14:01:00,75.2,62.2,25.88,ENE,69,2.0,2.0,64,0.00,,,0.01,287,Wunderground v.1.15,2013-09-27 20:01:00,
2013-09-27 14:10:00,75.5,62.0,25.88,East,98,2.0,2.0,63,0.00,,,0.01,193,Wunderground v.1.15,2013-09-27 20:10:00,
2013-09-27 14:16:00,75.3,62.3,25.87,NE,43,2.0,5.0,64,0.00,,,0.01,243,Wunderground v.1.15,2013-09-27 20:16:00,
2013-09-27 14:26:00,74.8,62.2,25.87,ENE,75,3.0,4.0,65,0.00,,,0.01,176,Wunderground v.1.15,2013-09-27 20:26:00,
2013-09-27 14:36:00,74.1,62.4,25.87,WNW,292,3.0,3.0,67,0.00,,,0.01,151,Wunderground v.1.15,2013-09-27 20:36:00,
2013-09-27 14:46:00,74.1,62.4,25.88,NE,56,3.0,5.0,67,0.00,,,0.01,118,Wunderground v.1.15,2013-09-27 20:46:00,
2013-09-27 14:55:00,73.9,61.8,25.88,WNW,298,2.0,4.0,66,0.00,,,0.01,123,Wunderground v.1.15,2013-09-27 20:55:00,
2013-09-27 15:00:00,73.9,62.2,25.88,NNE,16,3.0,4.0,67,0.00,,,0.01,141,Wunderground v.1.15,2013-09-27 21:00:00,
2013-09-27 15:10:00,73.4,62.2,25.88,North,360,4.0,4.0,68,0.00,,,0.01,102,Wunderground v.1.15,2013-09-27 21:10:00,
2013-09-27 15:16:00,73.1,61.9,25.88,NNE,13,4.0,4.0,68,0.00,,,0.01,90,Wunderground v.1.15,2013-09-27 21:16:00,
2013-09-27 15:25:00,72.6,62.3,25.88,ESE,108,4.0,8.0,70,0.00,,,0.01,105,Wunderground v.1.15,2013-09-27 21:25:00,
2013-09-27 15:30:00,72.2,61.9,25.88,NE,50,4.0,4.0,70,0.00,,,0.01,104,Wunderground v.1.15,2013-09-27 21:30:00,
2013-09-27 15:41:00,72.0,61.7,25.88,SE,130,4.0,4.0,70,0.00,,,0.01,116,Wunderground v.1.15,2013-09-27 21:41:00,
2013-09-27 15:46:00,72.0,61.7,25.88,NNW,346,4.0,4.0,70,0.00,,,0.01,260,Wunderground v.1.15,2013-09-27 21:46:00,
2013-09-27 15:55:00,71.7,60.6,25.89,East,94,4.0,4.0,68,0.00,,,0.01,111,Wunderground v.1.15,2013-09-27 21:55:00,
2013-09-27 16:00:00,71.7,59.7,25.89,NW,319,4.0,4.0,66,0.00,,,0.01,239,Wunderground v.1.15,2013-09-27 22:00:00,
2013-09-27 16:10:00,71.7,59.7,25.89,SW,228,5.0,5.0,66,0.00,,,0.01,121,Wunderground v.1.15,2013-09-27 22:10:00,
2013-09-27 16:15:00,71.5,59.5,25.88,ESE,123,4.0,6.0,66,0.00,,,0.01,81,Wunderground v.1.15,2013-09-27 22:15:00,
2013-09-27 16:25:00,71.5,59.1,25.89,NE,41,3.0,4.0,65,0.00,,,0.01,72,Wunderground v.1.15,2013-09-27 22:25:00,
2013-09-27 16:30:00,71.5,59.5,25.89,NNE,22,3.0,3.0,66,0.00,,,0.01,62,Wunderground v.1.15,2013-09-27 22:30:00,
2013-09-27 16:36:00,71.4,60.7,25.89,NE,36,3.0,3.0,69,0.00,,,0.01,63,Wunderground v.1.15,2013-09-27 22:36:00,
2013-09-27 16:41:00,71.4,61.1,25.89,NNE,19,2.0,2.0,70,0.00,,,0.01,56,Wunderground v.1.15,2013-09-27 22:41:00,
2013-09-27 16:46:00,71.2,61.3,25.89,North,360,2.0,2.0,71,0.00,,,0.01,51,Wunderground v.1.15,2013-09-27 22:46:00,
2013-09-27 16:55:00,71.0,59.9,25.90,NW,321,2.0,4.0,68,0.00,,,0.01,49,Wunderground v.1.15,2013-09-27 22:55:00,
2013-09-27 17:06:00,70.7,59.6,25.90,East,91,3.0,3.0,68,0.00,,,0.01,40,Wunderground v.1.15,2013-09-27 23:06:00,
2013-09-27 17:16:00,70.7,60.4,25.91,North,355,3.0,3.0,70,0.00,,,0.01,23,Wunderground v.1.15,2013-09-27 23:16:00,
2013-09-27 17:25:00,70.5,60.6,25.91,NNE,17,1.0,2.0,71,0.00,,,0.01,7,Wunderground v.1.15,2013-09-27 23:25:00,
2013-09-27 17:30:00,70.3,61.2,25.92,ENE,65,1.0,3.0,73,0.00,,,0.01,0,Wunderground v.1.15,2013-09-27 23:30:00,
2013-09-27 17:41:00,70.0,61.3,25.92,NNE,26,2.0,3.0,74,0.00,,,0.01,0,Wunderground v.1.15,2013-09-27 23:41:00,
2013-09-27 17:46:00,69.8,61.5,25.92,NNE,25,3.0,3.0,75,0.00,,,0.01,0,Wunderground v.1.15,2013-09-27 23:46:00,
2013-09-27 17:55:00,69.5,61.6,25.92,WNW,298,2.0,2.0,76,0.00,,,0.01,0,Wunderground v.1.15,2013-09-27 23:55:00,
2013-09-27 18:00:00,69.3,61.4,25.92,North,5,2.0,3.0,76,0.00,,,0.01,0,Wunderground v.1.15,2013-09-28 00:00:00,
2013-09-27 18:10:00,69.0,61.9,25.93,ENE,71,2.0,2.0,78,0.00,,,0.01,0,Wunderground v.1.15,2013-09-28 00:10:00,
2013-09-27 18:15:00,69.0,61.9,25.93,East,82,2.0,2.0,78,0.00,,,0.01,0,Wunderground v.1.15,2013-09-28 00:15:00,
2013-09-27 18:25:00,69.0,61.9,25.94,WSW,251,1.0,2.0,78,0.00,,,0.01,0,Wunderground v.1.15,2013-09-28 00:25:00,
2013-09-27 18:30:00,69.0,61.9,25.93,East,82,1.0,1.0,78,0.00,,,0.01,0,Wunderground v.1.15,2013-09-28 00:30:00,
2013-09-27 18:40:00,69.2,61.7,25.93,SSE,147,1.0,1.0,77,0.00,,,0.01,0,Wunderground v.1.15,2013-09-28 00:40:00,
2013-09-27 18:46:00,69.5,61.6,25.94,SE,146,0.0,1.0,76,0.00,,,0.01,0,Wunderground v.1.15,2013-09-28 00:46:00,
2013-09-27 18:55:00,69.8,61.9,25.95,SSE,147,0.0,0.0,76,0.00,,,0.01,0,Wunderground v.1.15,2013-09-28 00:55:00,
2013-09-27 19:00:00,69.8,61.9,25.95,SSE,147,0.0,0.0,76,0.00,,,0.01,0,Wunderground v.1.15,2013-09-28 01:00:00,
2013-09-27 19:10:00,69.8,61.9,25.95,SSE,147,0.0,0.0,76,0.00,,,0.01,0,Wunderground v.1.15,2013-09-28 01:10:00,
2013-09-27 19:15:00,69.7,62.2,25.95,SSE,147,0.0,0.0,77,0.00,,,0.01,0,Wunderground v.1.15,2013-09-28 01:15:00,
2013-09-27 19:25:00,69.2,61.7,25.95,SE,146,0.0,0.0,77,0.00,,,0.01,0,Wunderground v.1.15,2013-09-28 01:25:00,
2013-09-27 19:31:00,68.8,61.7,25.95,SSE,147,0.0,0.0,78,0.00,,,0.01,0,Wunderground v.1.15,2013-09-28 01:31:00,
2013-09-27 19:40:00,68.3,61.5,25.95,SE,146,0.0,0.0,79,0.00,,,0.01,0,Wunderground v.1.15,2013-09-28 01:40:00,
2013-09-27 19:46:00,68.2,61.8,25.95,SE,146,0.0,0.0,80,0.00,,,0.01,0,Wunderground v.1.15,2013-09-28 01:46:00,
2013-09-27 19:55:00,68.0,61.9,25.96,SSE,147,0.0,0.0,81,0.00,,,0.01,0,Wunderground v.1.15,2013-09-28 01:55:00,
2013-09-27 20:00:00,68.0,61.9,25.96,SSE,147,0.0,0.0,81,0.00,,,0.01,0,Wunderground v.1.15,2013-09-28 02:00:00,
2013-09-27 20:10:00,68.0,61.6,25.96,SSE,147,0.0,0.0,80,0.00,,,0.01,0,Wunderground v.1.15,2013-09-28 02:10:00,
2013-09-27 20:15:00,68.0,61.9,25.96,SSE,147,0.0,1.0,81,0.00,,,0.01,0,Wunderground v.1.15,2013-09-28 02:15:00,
2013-09-27 20:21:00,68.0,61.2,25.96,SE,126,1.0,2.0,79,0.00,,,0.01,0,Wunderground v.1.15,2013-09-28 02:21:00,
2013-09-27 20:30:00,68.0,60.2,25.96,SE,141,4.0,7.0,76,0.00,,,0.01,0,Wunderground v.1.15,2013-09-28 02:30:00,
2013-09-27 20:40:00,68.2,60.3,25.96,SE,142,4.0,4.0,76,0.00,,,0.01,0,Wunderground v.1.15,2013-09-28 02:40:00,
2013-09-27 20:45:00,68.0,60.2,25.96,SE,128,2.0,4.0,76,0.00,,,0.01,0,Wunderground v.1.15,2013-09-28 02:45:00,
2013-09-27 20:50:00,68.0,60.2,25.96,SE,143,1.0,1.0,76,0.00,,,0.01,0,Wunderground v.1.15,2013-09-28 02:50:00,
2013-09-27 20:56:00,68.0,60.2,25.97,SE,143,1.0,4.0,76,0.00,,,0.01,0,Wunderground v.1.15,2013-09-28 02:56:00,
2013-09-27 21:01:00,67.8,60.0,25.97,SE,143,1.0,1.0,76,0.00,,,0.01,0,Wunderground v.1.15,2013-09-28 03:01:00,
2013-09-27 21:10:00,67.8,60.7,25.97,SE,143,1.0,1.0,78,0.00,,,0.01,0,Wunderground v.1.15,2013-09-28 03:10:00,
2013-09-27 21:15:00,67.8,60.7,25.97,SE,142,2.0,2.0,78,0.00,,,0.01,0,Wunderground v.1.15,2013-09-28 03:15:00,
2013-09-27 21:21:00,67.8,60.7,25.97,SE,142,1.0,1.0,78,0.00,,,0.01,0,Wunderground v.1.15,2013-09-28 03:21:00,
2013-09-27 21:26:00,67.7,61.0,25.96,SE,142,0.0,1.0,79,0.00,,,0.01,0,Wunderground v.1.15,2013-09-28 03:26:00,
2013-09-27 21:35:00,67.5,60.4,25.97,SSE,157,2.0,4.0,78,0.00,,,0.01,0,Wunderground v.1.15,2013-09-28 03:35:00,
2013-09-27 21:45:00,67.5,60.4,25.96,SE,132,1.0,2.0,78,0.00,,,0.01,0,Wunderground v.1.15,2013-09-28 03:45:00,
2013-09-27 21:55:00,67.5,60.4,25.96,SE,139,1.0,1.0,78,0.00,,,0.01,0,Wunderground v.1.15,2013-09-28 03:55:00,
2013-09-27 22:00:00,67.5,60.4,25.96,SE,140,1.0,1.0,78,0.00,,,0.01,0,Wunderground v.1.15,2013-09-28 04:00:00,
2013-09-27 22:05:00,67.5,60.4,25.96,SE,140,1.0,1.0,78,0.00,,,0.01,0,Wunderground v.1.15,2013-09-28 04:05:00,
2013-09-27 22:10:00,67.5,60.4,25.96,SE,140,0.0,0.0,78,0.00,,,0.01,0,Wunderground v.1.15,2013-09-28 04:10:00,
2013-09-27 22:16:00,67.5,60.4,25.97,SE,140,0.0,0.0,78,0.00,,,0.01,0,Wunderground v.1.15,2013-09-28 04:16:00,
2013-09-27 22:25:00,67.3,60.2,25.96,SE,140,0.0,0.0,78,0.00,,,0.01,0,Wunderground v.1.15,2013-09-28 04:25:00,
2013-09-27 22:30:00,67.0,60.3,25.97,SE,140,0.0,0.0,79,0.00,,,0.01,0,Wunderground v.1.15,2013-09-28 04:30:00,
2013-09-27 22:35:00,66.8,60.1,25.97,SE,140,0.0,0.0,79,0.00,,,0.01,0,Wunderground v.1.15,2013-09-28 04:35:00,
2013-09-27 22:45:00,66.3,59.6,25.96,SE,140,0.0,0.0,79,0.00,,,0.01,0,Wunderground v.1.15,2013-09-28 04:45:00,
2013-09-27 22:51:00,66.3,59.9,25.96,SE,140,0.0,0.0,80,0.00,,,0.01,0,Wunderground v.1.15,2013-09-28 04:51:00,
2013-09-27 23:01:00,66.2,59.8,25.96,SE,140,0.0,0.0,80,0.00,,,0.01,0,Wunderground v.1.15,2013-09-28 05:01:00,
2013-09-27 23:10:00,66.0,60.0,25.96,SE,140,0.0,0.0,81,0.00,,,0.01,0,Wunderground v.1.15,2013-09-28 05:10:00,
2013-09-27 23:15:00,65.9,59.9,25.96,SE,140,0.0,0.0,81,0.00,,,0.01,0,Wunderground v.1.15,2013-09-28 05:15:00,
2013-09-27 23:21:00,65.7,60.1,25.96,SE,140,0.0,0.0,82,0.00,,,0.01,0,Wunderground v.1.15,2013-09-28 05:21:00,
2013-09-27 23:31:00,65.5,59.9,25.96,SE,140,0.0,0.0,82,0.00,,,0.01,0,Wunderground v.1.15,2013-09-28 05:31:00,
2013-09-27 23:41:00,65.4,60.1,25.96,SE,140,0.0,0.0,83,0.00,,,0.01,0,Wunderground v.1.15,2013-09-28 05:41:00,
2013-09-27 23:46:00,65.4,60.1,25.96,SE,140,0.0,0.0,83,0.00,,,0.01,0,Wunderground v.1.15,2013-09-28 05:46:00,
2013-09-27 23:55:00,65.4,60.8,25.96,SE,140,0.0,0.0,85,0.00,,,0.01,0,Wunderground v.1.15,2013-09-28 05:55:00,